CZ-6A DEB

Satellite information

Favourite Embed

Satellite Type and Status

DEBRISIN ORBIT

Key statistics

Satellite CZ-6A DEB at a glance.

Uptime

335

Days in orbit

Revolutions

≈ 14.5

Per day

Orbit

LEO

Low Earth Orbit

Inclination

88.8

Latest

Satellite identification and parameters

Extended collection of information and parameters for CZ-6A DEB.

Object identification

Identified? True

Debris? True

Object name: CZ-6A DEB

International designator: 2024-140AAG

Object number (NORAD): 61474

Object ID (CCSDS): 61474

Country: PEOPLES REPUBLIC OF CHINA (PRC)

Current information (Y/N): Y

RCS size: SMALL

Orbital parameters

Period: 99.525 minutes

Inclination: 88.823 deg

SMA: 7114.014 km

Apoapsis: 827.015 km

Periapsis: 644.743 km

RAAN: 304.7092 deg

Eccentricy: 0.0128108

Argument of periapsis: 62.064 deg

Mean anomaly: 299.3465 deg

Mean motion: 14.46873882 rev/day

Mean motion (dot): 0.00002484 rev/day2

B* drag term: 0.00061369 1/REarth

Two-line elements (TLE)

Creation date: July 6, 2025, 10:36 p.m.

Reference frame: TEME

Reference center: EARTH

Epoch: July 6, 2025, 6:34 p.m. UTC

TLE line 0: 0 CZ-6A DEB

TLE line 1: 1 61474U 24140AAG 25187.77408906 .00002484 00000-0 61369-3 0 9993

TLE line 2: 2 61474 88.8230 304.7092 0128108 62.0640 299.3465 14.46873882 44126

Live tracking on map

Real-time ground track for satellite CZ-6A DEB.

In-orbit conjunctions

A list of the most updated potential collisions computed for object CZ-6A DEB.

Target Orbit TCA Probability of collision Miss distance Type
FENGYUN 1C DEB SSO 2025-02-20 13:16:29 0.0002120712 251.0 (m) DEBRIS
NOAA 16 DEB SSO 2025-02-03 23:50:11 0.0002327223 181.0 (m) DEBRIS
COSMOS 1680 LEO 2024-12-22 21:42:12 0.0003268666 510.0 (m) PAYLOAD
SL-14 DEB LEO 2024-11-25 11:10:57 0.0001953643 164.0 (m) DEBRIS
FENGYUN 1C DEB SSO 2024-11-20 18:06:41 0.0002436303 713.0 (m) DEBRIS

Associated space launch

18 Low Earth Orbit communication satellites with Ku, Q and V band payloads for the G60 constellation operated by Shanghai Spacecom Satellite Technology (SSST) with funding backed by the Shanghai local government. Initial constellation will consist of 1296 satellites by 2027 with long term plans to expand it to 12000 satellites.

CZ-6A DEB was lifted into orbit during the mission ‘Long March 6A | G60 Polar Group 01’, on board a Long March 6A space rocket.

The launch took place on Aug. 6, 2024, 6:42 a.m. from Launch Complex 9A.

For more information about the launch, click the button.

Launch to space Long March 6A | G60 Polar Group 01
Long March 6A | G60 Polar Group 01

Agency: N/A

Status: Launch Successful

Launch date: Aug. 6, 2024, 6:42 a.m. UTC

Rocket: Long March 6A

Launch pad: Launch Complex 9A

Location: Taiyuan Satellite Launch Center, People's Republic of China

...

Latest news about this satellite

News about space launch
Brightness of first Chinese broadband constellation satellites alarms astronomers

The first satellites of a Chinese broadband constellation are significantly brighter than those of Western systems, posing a new challenge for astronomers.

News about space launch
Chinese rocket stage breaks up into cloud of more than 700 pieces of space debris

HELSINKI — A Chinese Long March 6A rocket’s upper stage has fragmented into a cloud of over 700 pieces of space debris, adding to concerns about long-term orbital safety. China […]

News about space launch
China's Thousand Sails Megaconstellation Kicks Off with Dangerous Debris Field

China's Thousand Sails Megaconstellation Kicks Off with Dangerous Debris Field


Newsletter sign-up

Weekly statistics, charts and insights to help you stay on top of the space industry.